TimeCST,TemperatureF,Dew PointF,Humidity,Sea Level PressureIn,VisibilityMPH,Wind Direction,Wind SpeedMPH,Gust SpeedMPH,PrecipitationIn,Events,Conditions,WindDirDegrees,DateUTC
12:15 AM,12.2,8.6,85,30.15,10.0,WSW,11.5,-,N/A,,Clear,240,2013-01-04 06:15:00
12:35 AM,12.2,8.6,85,30.15,10.0,WSW,11.5,-,N/A,,Clear,240,2013-01-04 06:35:00
12:55 AM,12.2,8.6,85,30.15,10.0,WSW,10.4,-,N/A,,Clear,240,2013-01-04 06:55:00
1:15 AM,10.4,6.8,85,30.15,10.0,WSW,10.4,-,N/A,,Clear,250,2013-01-04 07:15:00
1:35 AM,10.4,5.0,79,30.14,10.0,WSW,9.2,-,N/A,,Clear,240,2013-01-04 07:35:00
1:55 AM,10.4,5.0,79,30.14,10.0,WSW,12.7,-,N/A,,Clear,240,2013-01-04 07:55:00
2:15 AM,10.4,5.0,79,30.14,10.0,WSW,12.7,-,N/A,,Clear,250,2013-01-04 08:15:00
2:35 AM,10.4,6.8,85,30.13,10.0,WSW,12.7,19.6,N/A,,Clear,250,2013-01-04 08:35:00
2:55 AM,10.4,6.8,85,30.13,10.0,WSW,11.5,16.1,N/A,,Clear,240,2013-01-04 08:55:00
6:45 AM,12.2,10.4,92,30.09,10.0,WSW,11.5,-,N/A,,Clear,240,2013-01-04 12:45:00
7:45 AM,12.2,10.4,92,30.10,10.0,WSW,13.8,-,N/A,,Clear,250,2013-01-04 13:45:00
8:45 AM,15.8,10.4,79,30.08,10.0,WSW,16.1,-,N/A,,Clear,240,2013-01-04 14:45:00
9:45 AM,17.6,10.4,73,30.09,10.0,WSW,16.1,-,N/A,,Clear,240,2013-01-04 15:45:00
10:45 AM,19.4,12.2,74,30.09,10.0,WSW,18.4,-,N/A,,Clear,250,2013-01-04 16:45:00
11:45 AM,23.0,14.0,68,30.07,10.0,West,17.3,-,N/A,,Clear,260,2013-01-04 17:45:00
12:45 PM,24.8,15.8,69,30.05,10.0,WSW,17.3,-,N/A,,Clear,250,2013-01-04 18:45:00
1:45 PM,26.6,15.8,64,30.06,10.0,WSW,13.8,-,N/A,,Clear,240,2013-01-04 19:45:00
2:45 PM,26.6,15.8,64,30.07,10.0,WSW,15.0,-,N/A,,Clear,240,2013-01-04 20:45:00
3:45 PM,26.6,17.6,69,30.10,10.0,WSW,10.4,-,N/A,,Clear,240,2013-01-04 21:45:00
4:45 PM,24.8,17.6,74,30.12,10.0,WSW,9.2,-,N/A,,Clear,250,2013-01-04 22:45:00
5:45 PM,24.8,17.6,74,30.14,10.0,WSW,10.4,-,N/A,,Clear,240,2013-01-04 23:45:00
6:45 PM,24.8,17.6,74,30.15,10.0,WSW,11.5,-,N/A,,Clear,250,2013-01-05 00:45:00
7:45 PM,24.8,17.6,74,30.16,10.0,WSW,10.4,-,N/A,,Clear,250,2013-01-05 01:45:00
8:15 PM,24.8,17.6,74,30.16,10.0,WSW,11.5,-,N/A,,Clear,250,2013-01-05 02:15:00
8:35 PM,23.0,17.6,80,30.16,10.0,WSW,9.2,-,N/A,,Clear,240,2013-01-05 02:35:00
8:45 PM,23.0,17.6,80,30.16,10.0,SW,8.1,-,N/A,,Clear,230,2013-01-05 02:45:00
8:55 PM,23.0,17.6,80,30.16,10.0,SW,6.9,-,N/A,,Clear,230,2013-01-05 02:55:00
9:15 PM,23.0,17.6,80,30.16,10.0,SW,6.9,-,N/A,,Clear,230,2013-01-05 03:15:00
9:35 PM,23.0,17.6,80,30.16,10.0,WSW,6.9,-,N/A,,Clear,250,2013-01-05 03:35:00
9:55 PM,23.0,17.6,80,30.17,10.0,WSW,10.4,-,N/A,,Clear,250,2013-01-05 03:55:00
10:15 PM,23.0,17.6,80,30.16,10.0,WSW,6.9,-,N/A,,Clear,250,2013-01-05 04:15:00
10:35 PM,23.0,17.6,80,30.17,10.0,SW,5.8,-,N/A,,Clear,230,2013-01-05 04:35:00
10:55 PM,23.0,17.6,80,30.18,10.0,WSW,8.1,-,N/A,,Clear,240,2013-01-05 04:55:00
11:15 PM,23.0,17.6,80,30.18,10.0,WSW,11.5,-,N/A,,Clear,240,2013-01-05 05:15:00
11:35 PM,23.0,17.6,80,30.18,10.0,WSW,11.5,-,N/A,,Clear,250,2013-01-05 05:35:00
11:55 PM,23.0,17.6,80,30.18,10.0,West,9.2,-,N/A,,Clear,260,2013-01-05 05:55:00